Location: Penton Mewsey
(51.2167°N, 1.5167°W)
Time: 23:12:42
(UTC+00:00)

Spot 2 Rocket - Pass Details

Date: 30 March 2020
Orbit: 757 x 773 km, 98.6° (Epoch: 29 May)

Event Time Altitude Azimuth Distance (km) Brightness Sun altitude
Exits shadow 21:35:54 35° 216° (SW) 1,243 4.4 -25.5°
Maximum altitude 21:37:30 45° 261° (W) 1,043 4.3 -25.7°
Drops below altitude 10° 21:42:26 10° 334° (NNW) 2,330 6.9 -26.2°
Sets 21:44:52 0° 341° (NNW) 3,260 7.8 -26.5°
